This is the latest recevied weather packets stored in our database for station/object W9WRP. If no packets are shown the sender has not sent any weather packets the latest 10 day(s).
| Time | Temp. | Humidity | Pressure | Rain* | Wind** | Luminosity | Snow |
|---|---|---|---|---|---|---|---|
| 1787853956 | 40° C | 24% | 1016.8 hPa | 0 mm | - | 631 W/m² | - |
| 1787853650 | 39.44° C | 25% | 1017 hPa | 0 mm | - | 677 W/m² | - |
| 1787853349 | 40° C | 24% | 1016.9 hPa | 0 mm | - | 672 W/m² | - |
| 1787853039 | 40° C | 24% | 1016.8 hPa | 0 mm | - | 660 W/m² | - |
| 1787852738 | 40° C | 24% | 1016.9 hPa | 0 mm | - | 631 W/m² | - |
| 1787852438 | 38.89° C | 25% | 1016.7 hPa | 0 mm | - | 648 W/m² | - |
| 1787852137 | 39.44° C | 25% | 1016.7 hPa | 0 mm | - | 635 W/m² | - |
| 1787851827 | 39.44° C | 24% | 1016.9 hPa | 0 mm | - | 622 W/m² | - |
| 1787851521 | 38.89° C | 25% | 1016.9 hPa | 0 mm | - | 614 W/m² | - |
| 1787851220 | 38.89° C | 25% | 1017.1 hPa | 0 mm | - | 600 W/m² | - |
| 1787850916 | 38.89° C | 26% | 1016.9 hPa | 0 mm | - | 582 W/m² | - |
| 1787850613 | 38.33° C | 25% | 1016.7 hPa | 0 mm | - | 490 W/m² | - |
| 1787850307 | 38.33° C | 27% | 1016.8 hPa | 0 mm | - | 197 W/m² | - |
| 1787850003 | 38.89° C | 27% | 1016.8 hPa | 0 mm | - | 211 W/m² | - |
| 1787849702 | 38.33° C | 20% | 1016.8 hPa | 0 mm | - | 267 W/m² | - |
| 1787849397 | 37.78° C | 21% | 1016.6 hPa | 0 mm | - | 135 W/m² | - |
| 1787849095 | 37.78° C | 21% | 1016.7 hPa | 0 mm | - | 151 W/m² | - |
| 1787848791 | 37.78° C | 21% | 1016.4 hPa | 0 mm | - | 145 W/m² | - |
| 1787848485 | 37.78° C | 21% | 1016.5 hPa | 0 mm | - | 261 W/m² | - |
| 1787848180 | 37.78° C | 21% | 1016.4 hPa | 0 mm | - | 240 W/m² | - |
| 1787847879 | 37.78° C | 20% | 1016.1 hPa | 0 mm | - | 197 W/m² | - |
| 1787847574 | 36.67° C | 21% | 1015.8 hPa | 0 mm | - | 301 W/m² | - |
| 1787847270 | 36.67° C | 21% | 1015.9 hPa | 0 mm | - | 155 W/m² | - |
| 1787846967 | 36.67° C | 21% | 1015.8 hPa | 0 mm | - | 144 W/m² | - |
| 1787846666 | 36.67° C | 21% | 1015.7 hPa | 0 mm | - | 160 W/m² | - |
* Rain latest hour (hover to see other rain measurements)
** Current wind speed in m/s (hover to see current wind gust speed)